Weather in Kandrykul'

Russia / Republic of Bashkortostan     54°29′44″N   54°01′04″E
temp.,
°C
wind,
m/s
gust,
m/s
humid.,
%
clouds,
%
prec.,
mm/h
press.,
hPa
HPBL,
m
27 november, sat
sat2723:00−2sw9198982 0.0 1023677
02:00−2sw9188742 0.0 1024654
05:00−4sw8188496 0.0 1025512
08:00−5sw71785100 0.0 1025479
11:00−3sw71792100 0.0 1026629
14:00−2sw61690100 0.0 1026719
17:00−3ssw5138986 0.0 1028605
20:00−8s411865 0.0 1028194
28 november, sun
sun2823:00−11s35835 0.0 102884
02:00−9s49775 0.0 1027161
05:00−9s411761 0.0 1026210
08:00−8s5147423 0.0 1025271
11:00−6s71772100 0.0 1024384
14:00−4s81878100 0.0 1022525
17:00−3s81778100 0.0 1022529
20:00−3ssw81791100 0.0 1021532
29 november, mon
mon2923:00−2ssw71691100 0.3 1021509
02:00−2ssw71589100 0.0 1021440
05:00−1ssw61489100 0.0 1021409
08:000ssw61392100 0.1 1021382
11:000ssw51291100 0.1 1022375
14:00+1ssw51293100 0.0 1022388
17:00+1ssw51193100 0.0 1022356
20:00+1ssw51289100 0.0 1022353
30 november, tue
tue3023:00+1ssw41286100 0.0 1021324
02:000s61579100 0.0 1019340
05:00−2s71871100 0.0 1018365
08:00−2s82165100 0.0 1014450
11:00−1s102466100 0.0 1010537
14:00−1s102375100 0.1 1009590
17:00+1s112585100 0.8 1004763
20:00+1s112285100 0.7 1002829
1 december, wed
wed123:00+1s101998100 1.9 1001590
02:00+1s81695100 1.0 1001544
05:00+1s61397100 1.1 1000418
08:00+1s61399100 0.1 1000482
11:00+1s512100100 0.2 1000380
14:00+1sse51197100 0.1 998319
17:00+1sse41099100 0.6 995360
20:00+1se51091100 1.1 991455